Terug naar catalogus

DELTA 1 DEB

ActiefSSO
NORAD 21367·DEBRIS·🇺🇸 United States

Gelanceerd Jun 12, 1975 vanaf Vandenberg Space Force Base

Loading…

Volgende Passages (komende 24 uur)

TLE

VersSource: Space-Track

Epoch: Sep 14, 2026, 10:24 UTC

1 21367U 75052CM  26257.43390324  .00000019  00000-0  12497-3 0  9994
2 21367  99.8003 324.5264 0074800 136.8319 288.8039 13.31448848714662

Volg DELTA 1 DEB in realtime met AllMySat

Download on the App Store